Weather History for K19A - September, 2013

Change the Weather History Date:

Saturday, September 28, 2013

  Actual Average (KGVL) Record (KGVL)
Temperature  
Mean Temperature 64 °F 67 °F  
Max Temperature 73 °F 77 °F 93 °F (1954)
Min Temperature 55 °F 58 °F 38 °F (1942)
Degree Days  
Heating Degree Days 1 1  
Month to date heating degree days 8  
Since 1 July heating degree days 8  
Cooling Degree Days 0 4  
Month to date cooling degree days 209  
Year to date cooling degree days 1535  
Growing Degree Days 14 (Base 50)    
Moisture  
Dew Point 51 °F    
Average Humidity 66    
Maximum Humidity 100    
Minimum Humidity 31    
Precipitation  
Precipitation 0.00 in 0.16 in 1.57 in (1960)
Month to date precipitation 4.39  
Year to date precipitation 40.64  
Sea Level Pressure  
Sea Level Pressure 30.19 in    
Wind  
Wind Speed 1 mph (East)    
Max Wind Speed 9 mph    
Max Gust Speed 9 mph    
Visibility 8 miles    
Events      
T = Trace of Precipitation, MM = Missing Value Source: NWS Daily Summary

Daily Weather History Graph

Daily Weather History Graph

Search for Another Location

Airport or City:

Trip Planner

Search our weather history database for the weather conditions in past years. The results will help you decide how hot, cold, wet, or windy it might be!

Date:

Astronomy

Sep. 28, 2013 Rise Set
Actual Time 7:26 AM EDT 7:22 PM EDT
Civil Twilight 7:01 AM EDT 7:47 PM EDT
Nautical Twilight 6:32 AM EDT 8:16 PM EDT
Astronomical Twilight 6:03 AM EDT 8:45 PM EDT
Moon 1:26 AM EDT (9/28) 3:27 PM EDT (9/28)
Length of Visible Light 12h 45m
Length of Day
11h 55m
Last Quarter, 36% of the Moon is Illuminated
Sep 28
Last Quarter
Oct 4
New
Oct 11
First Quarter
Oct 18
Full
Oct 26
Last Quarter

Hourly Weather History & Observations

Time (EDT) Temp. Dew Point Humidity Pressure Visibility Wind Dir Wind Speed Gust Speed Precip Events Conditions
12:15 AM 62.6 °F 53.6 °F 72% 30.17 in 10.0 mi Calm Calm - N/A   Scattered Clouds
12:35 AM 60.8 °F 59.0 °F 94% 30.17 in 10.0 mi Calm Calm - N/A   Scattered Clouds
12:55 AM 60.8 °F 59.0 °F 94% 30.18 in 10.0 mi Calm Calm - N/A   Scattered Clouds
1:15 AM 60.8 °F 59.0 °F 94% 30.17 in 10.0 mi Calm Calm - N/A   Mostly Cloudy
1:35 AM 60.8 °F 55.4 °F 82% 30.17 in 10.0 mi Calm Calm - N/A   Mostly Cloudy
1:55 AM 60.8 °F 59.0 °F 94% 30.17 in 10.0 mi Calm Calm - N/A   Mostly Cloudy
2:15 AM 60.8 °F 59.0 °F 94% 30.18 in 10.0 mi Calm Calm - N/A   Mostly Cloudy
2:35 AM 60.8 °F 59.0 °F 94% 30.18 in 10.0 mi Calm Calm - N/A   Mostly Cloudy
2:55 AM 59.0 °F 59.0 °F 100% 30.17 in 10.0 mi Calm Calm - N/A   Scattered Clouds
3:15 AM 59.0 °F 57.2 °F 94% 30.17 in 10.0 mi Calm Calm - N/A   Clear
3:35 AM 59.0 °F 57.2 °F 94% 30.16 in 10.0 mi Calm Calm - N/A   Clear
3:55 AM 59.0 °F 57.2 °F 94% 30.16 in 10.0 mi Calm Calm - N/A   Clear
4:15 AM 57.2 °F 55.4 °F 94% 30.17 in 10.0 mi Calm Calm - N/A   Clear
4:35 AM 57.2 °F 55.4 °F 94% 30.17 in 10.0 mi Calm Calm - N/A   Clear
4:55 AM 57.2 °F 55.4 °F 94% 30.17 in 10.0 mi Calm Calm - N/A   Clear
5:15 AM 57.2 °F 55.4 °F 94% 30.18 in 7.0 mi Calm Calm - N/A   Clear
5:35 AM 57.2 °F 55.4 °F 94% 30.18 in 7.0 mi Calm Calm - N/A   Clear
5:55 AM 57.2 °F 55.4 °F 94% 30.18 in 10.0 mi Calm Calm - N/A   Clear
6:15 AM 57.2 °F 57.2 °F 100% 30.19 in 10.0 mi Calm Calm - N/A   Clear
6:35 AM 57.2 °F 55.4 °F 94% 30.19 in 10.0 mi Calm Calm - N/A   Clear
6:55 AM 57.2 °F 55.4 °F 94% 30.20 in 10.0 mi Calm Calm - N/A   Clear
7:15 AM 55.4 °F 55.4 °F 100% 30.21 in 7.0 mi Calm Calm - N/A   Clear
7:35 AM 55.4 °F 55.4 °F 100% 30.21 in 7.0 mi Calm Calm - N/A   Clear
7:55 AM 55.4 °F 55.4 °F 100% 30.22 in 7.0 mi Calm Calm - N/A   Clear
8:15 AM 59.0 °F 57.2 °F 94% 30.23 in 10.0 mi Calm Calm - N/A   Clear
8:35 AM 59.0 °F 57.2 °F 94% 30.23 in 10.0 mi Calm Calm - N/A   Clear
8:55 AM 60.8 °F 55.4 °F 82% 30.23 in 10.0 mi ENE 3.5 mph - N/A   Clear
9:15 AM 62.6 °F 53.6 °F 72% 30.24 in 10.0 mi Calm Calm - N/A   Clear
9:35 AM 62.6 °F 51.8 °F 68% 30.24 in 10.0 mi ENE 4.6 mph - N/A   Clear
9:55 AM 64.4 °F 51.8 °F 64% 30.25 in 10.0 mi East 4.6 mph - N/A   Clear
10:15 AM 64.4 °F 50.0 °F 59% 30.26 in 10.0 mi East 4.6 mph - N/A   Clear
10:35 AM 68.0 °F 50.0 °F 52% 30.25 in 10.0 mi East 4.6 mph - N/A   Clear
10:55 AM 68.0 °F 48.2 °F 49% 30.25 in 10.0 mi East 5.8 mph - N/A   Clear
11:15 AM 69.8 °F 48.2 °F 46% 30.25 in 10.0 mi East 5.8 mph 9.2 mph N/A   Scattered Clouds
11:35 AM 69.8 °F 46.4 °F 43% 30.24 in 10.0 mi ESE 8.1 mph - N/A   Scattered Clouds
11:55 AM 69.8 °F 46.4 °F 43% 30.24 in 7.0 mi East 4.6 mph - N/A   Clear
12:15 PM 71.6 °F 44.6 °F 38% 30.24 in 10.0 mi East 6.9 mph - N/A   Clear
12:35 PM 71.6 °F 46.4 °F 41% 30.24 in 5.0 mi Calm Calm - N/A   Haze
12:55 PM 71.6 °F 42.8 °F 35% 30.23 in 7.0 mi ESE 6.9 mph - N/A   Scattered Clouds
1:15 PM 73.4 °F 41.0 °F 31% 30.22 in 0.2 mi ESE 9.2 mph - N/A   Haze
1:35 PM 73.4 °F 42.8 °F 33% 30.21 in 2.5 mi Calm Calm - N/A   Haze
1:55 PM 71.6 °F 44.6 °F 38% 30.21 in 10.0 mi East 3.5 mph - N/A   Overcast
2:15 PM 71.6 °F 42.8 °F 35% 30.21 in 7.0 mi Calm Calm - N/A   Mostly Cloudy
2:35 PM 73.4 °F 42.8 °F 33% 30.19 in 0.2 mi East 4.6 mph - N/A   Haze
2:55 PM 73.4 °F 44.6 °F 36% 30.18 in 1.2 mi NNE 4.6 mph - N/A   Haze
3:15 PM 71.6 °F 44.6 °F 38% 30.19 in 7.0 mi Calm Calm - N/A   Mostly Cloudy
3:35 PM 71.6 °F 44.6 °F 38% 30.18 in 10.0 mi Calm Calm - N/A   Overcast
3:55 PM 73.4 °F 42.8 °F 33% 30.18 in 7.0 mi Calm Calm - N/A   Scattered Clouds
4:15 PM 73.4 °F 42.8 °F 33% 30.18 in 0.8 mi East 4.6 mph - N/A   Haze
4:35 PM 73.4 °F 44.6 °F 36% 30.17 in 7.0 mi East 3.5 mph - N/A   Mostly Cloudy
4:55 PM 73.4 °F 44.6 °F 36% 30.17 in 7.0 mi East 3.5 mph - N/A   Mostly Cloudy
5:15 PM 73.4 °F 44.6 °F 36% 30.16 in 4.0 mi Calm Calm - N/A   Haze
5:35 PM 73.4 °F 44.6 °F 36% 30.16 in 2.5 mi ESE 5.8 mph - N/A   Haze
5:55 PM 73.4 °F 44.6 °F 36% 30.15 in 2.5 mi East 3.5 mph - N/A   Haze
6:15 PM 71.6 °F 46.4 °F 41% 30.15 in 10.0 mi Calm Calm - N/A   Clear
6:35 PM 69.8 °F 50.0 °F 49% 30.15 in 10.0 mi Calm Calm - N/A   Clear
6:55 PM 68.0 °F 51.8 °F 56% 30.14 in 10.0 mi Calm Calm - N/A   Clear
7:15 PM 68.0 °F 51.8 °F 56% 30.14 in 10.0 mi Calm Calm - N/A   Clear
7:35 PM 64.4 °F 51.8 °F 64% 30.14 in 10.0 mi Calm Calm - N/A   Clear
7:55 PM 64.4 °F 51.8 °F 64% 30.15 in 10.0 mi Calm Calm - N/A   Clear
8:15 PM 62.6 °F 53.6 °F 72% 30.15 in 10.0 mi Calm Calm - N/A   Clear
8:35 PM 62.6 °F 51.8 °F 68% 30.16 in 10.0 mi Calm Calm - N/A   Clear
8:55 PM 62.6 °F 51.8 °F 68% 30.16 in 10.0 mi Calm Calm - N/A   Clear
9:15 PM 62.6 °F 51.8 °F 68% 30.16 in 10.0 mi Calm Calm - N/A   Clear
9:35 PM 60.8 °F 51.8 °F 72% 30.17 in 10.0 mi Calm Calm - N/A   Scattered Clouds
9:55 PM 62.6 °F 50.0 °F 63% 30.17 in 10.0 mi East 3.5 mph - N/A   Scattered Clouds
10:15 PM 62.6 °F 50.0 °F 63% 30.17 in 10.0 mi Calm Calm - N/A   Scattered Clouds
10:35 PM 60.8 °F 50.0 °F 68% 30.17 in 10.0 mi Calm Calm - N/A   Scattered Clouds
10:55 PM 62.6 °F 50.0 °F 63% 30.17 in 10.0 mi Calm Calm - N/A   Mostly Cloudy
11:15 PM 62.6 °F 48.2 °F 59% 30.17 in 10.0 mi Calm Calm - N/A   Overcast
11:35 PM 62.6 °F 48.2 °F 59% 30.18 in 10.0 mi Calm Calm - N/A   Overcast
11:55 PM 62.6 °F 50.0 °F 63% 30.18 in 10.0 mi Calm Calm - N/A   Overcast